Вернуться в каталог

ONEWEB-0431

АктивенСвязьPO
NORAD 51630·PAYLOAD·🇬🇧 United Kingdom

Запущен Feb 10, 2022 с Guiana Space Centre

Loading…

Ближайшие Пролёты (ближайшие 24 часа)

TLE

СвежийSource: CelesTrak SupGP

Эпоха: Sep 14, 2026, 21:03 UTC

1 51630C 22012J   26257.87757359 -.00000206  00000+0 -58975-3 0  2578
2 51630  87.8920  18.4098 0001308  84.7680  27.7722 13.10380485    17

Отслеживайте ONEWEB-0431 в реальном времени с AllMySat

Download on the App Store